Location: Fort Wayne
(41.1310°N, 85.1290°W)
Time: 18:41:46
(UTC-05:00)

Cosmos 1953 - Visible Passes

Search period start: 20 December 2014 00:00
Search period end: 30 December 2014 00:00
Orbit: 547 x 568 km, 82.5° (Epoch: 19 December)

Date Brightness Start Highest point End Pass type
(mag) Time Alt. Az. Time Alt. Az. Time Alt. Az.
20 Dec 5.0 07:14:26 10° SE 07:17:36 23° E 07:20:47 10° NE visible
20 Dec 2.3 18:50:32 10° N 18:54:29 55° E 18:58:24 10° SSE visible
20 Dec 5.7 20:30:24 10° W 20:30:30 10° W 20:30:36 10° W visible
21 Dec 4.8 07:12:16 10° SSE 07:15:39 26° E 07:19:02 10° NNE visible
21 Dec 2.2 18:48:34 10° N 18:52:34 66° E 18:56:33 10° SSE visible
22 Dec 4.5 07:10:08 10° SSE 07:13:41 30° E 07:17:14 10° NNE visible
22 Dec 2.2 18:46:37 10° N 18:50:39 78° E 18:54:39 10° S visible
23 Dec 4.1 07:08:02 10° SSE 07:11:43 35° E 07:15:24 10° NNE visible
23 Dec 2.3 18:44:40 10° N 18:48:42 88° W 18:52:42 10° S visible
24 Dec 3.8 07:05:57 10° SSE 07:09:45 42° E 07:13:33 10° NNE visible
24 Dec 2.5 18:42:44 10° NNW 18:46:45 75° W 18:50:44 10° S visible
25 Dec 3.4 07:03:53 10° SSE 07:07:46 49° E 07:11:39 10° NNE visible
25 Dec 2.8 18:40:48 10° NNW 18:44:46 63° W 18:48:44 10° S visible
26 Dec 3.0 07:01:50 10° S 07:05:47 58° E 07:09:44 10° NNE visible
26 Dec 3.2 18:38:52 10° NNW 18:42:47 53° W 18:46:41 10° S visible
27 Dec 2.7 06:59:48 10° S 07:03:47 70° E 07:07:47 10° NNE visible
27 Dec 3.5 18:36:56 10° NNW 18:40:47 45° W 18:44:36 10° SSW visible
28 Dec 2.4 06:57:47 10° S 07:01:47 82° E 07:05:49 10° N visible
28 Dec 3.9 18:35:01 10° NNW 18:38:45 38° W 18:42:29 10° SSW visible
29 Dec 2.2 06:55:46 10° S 06:59:47 84° W 07:03:49 10° N visible
29 Dec 4.3 18:33:07 10° NNW 18:36:43 32° W 18:40:19 10° SSW visible
